Location: Bathurst
(33.4193°S, 149.5775°E)
Time: 16:11:06
(UTC+10:00)

SR - All Passes

Search period start: 15 June 2021 00:00
Search period end: 25 June 2021 00:00
Orbit: 574 x 880 km, 66.7° (Epoch: 14 June)

Date Brightness Start Highest point End Pass type
(mag) Time Alt. Az. Time Alt. Az. Time Alt. Az.
15 Jun - 04:52:20 10° N 04:56:21 42° ENE 05:00:22 10° SE visible
15 Jun - 06:36:12 10° W 06:38:33 14° SW 06:40:55 10° SSW visible
15 Jun - 13:37:02 10° SSE 13:39:58 15° SE 13:43:00 10° E daylight
15 Jun - 15:17:17 10° SSW 15:22:18 63° WNW 15:27:42 10° NNE daylight
16 Jun - 04:04:04 10° NNE 04:06:48 17° ENE 04:09:32 10° ESE visible
16 Jun - 05:44:41 10° WNW 05:48:29 32° WSW 05:52:20 10° S visible
16 Jun - 14:27:33 10° SSW 14:32:31 60° ESE 14:37:54 10° NE daylight
16 Jun - 16:11:28 10° WSW 16:14:10 14° WNW 16:16:58 10° NW daylight
17 Jun - 04:54:24 10° NNW 04:58:38 80° WSW 05:02:55 10° SSE visible
17 Jun - 13:38:17 10° S 13:42:37 29° ESE 13:47:15 10° ENE daylight
17 Jun - 15:20:06 10° SW 15:24:36 31° WNW 15:29:24 10° N daylight
18 Jun - 04:05:01 10° N 04:08:58 38° ENE 04:12:54 10° SE visible
18 Jun - 05:48:31 10° W 05:51:05 16° SW 05:53:43 10° SSW visible
18 Jun - 12:49:49 10° SSE 12:52:32 14° SE 12:55:21 10° E daylight
18 Jun - 14:29:51 10° SSW 14:34:55 69° WNW 14:40:24 10° NNE daylight
19 Jun - 03:16:57 10° NE 03:19:26 15° ENE 03:21:54 10° ESE night (unlit)
19 Jun - 04:57:11 10° NW 05:01:04 34° WSW 05:05:00 10° S visible
19 Jun - 13:40:09 10° SSW 13:45:08 55° ESE 13:50:30 10° NE daylight
19 Jun - 15:23:46 10° WSW 15:26:49 16° WNW 15:29:58 10° NW daylight
20 Jun - 04:06:59 10° NNW 04:11:14 88° SW 04:15:31 10° SSE visible
20 Jun - 12:50:56 10° S 12:55:13 27° ESE 12:59:45 10° ENE daylight
20 Jun - 14:32:36 10° SW 14:37:14 34° WNW 14:42:10 10° N daylight
21 Jun - 03:17:43 10° N 03:21:33 34° ENE 03:25:26 10° SE night (unlit)
21 Jun - 05:00:52 10° W 05:03:39 17° SW 05:06:28 10° SSW visible
21 Jun - 12:02:37 10° SSE 12:05:06 13° SE 12:07:40 10° E daylight
21 Jun - 13:42:25 10° SSW 13:47:33 75° WNW 13:53:04 10° NNE daylight
22 Jun - 02:29:52 10° NE 02:32:03 14° ENE 02:34:13 10° ESE night (unlit)
22 Jun - 04:09:41 10° NW 04:13:38 38° WSW 04:17:38 10° S night (unlit)
22 Jun - 12:52:46 10° SSW 12:57:44 51° ESE 13:03:06 10° NE daylight
22 Jun - 14:36:06 10° WSW 14:39:27 17° WNW 14:42:56 10° NW daylight
23 Jun - 03:19:35 10° NNW 03:23:49 84° ENE 03:28:06 10° SSE night (unlit)
23 Jun - 12:03:36 10° S 12:07:48 25° ESE 12:12:14 10° ENE daylight
23 Jun - 13:45:07 10° SW 13:49:52 37° WNW 13:54:56 10° N daylight
24 Jun - 02:30:25 10° N 02:34:10 31° ENE 02:37:56 10° SE night (unlit)
24 Jun - 04:13:14 10° W 04:16:12 18° SW 04:19:14 10° S night (unlit)
24 Jun - 11:15:27 10° SSE 11:17:40 13° SE 11:19:57 10° ESE daylight
24 Jun - 12:55:00 10° SSW 13:00:09 81° WNW 13:05:44 10° NNE daylight
